Location: Flechtorf
(52.3560°N, 10.7066°E)
Time: 14:36:28
(UTC+00:00)

Daily predictions for brighter satellites

Satellite Brightness Start Highest point End
(mag) Time Altitude Azimuth Time Altitude Azimuth Time Altitude Azimuth
Meteor 1-15 Rocket 4.4 20:23:06 10° N 20:28:53 68° ENE 20:34:31 10° SSE
Cosmos 1238 4.2 20:27:14 10° S 20:30:35 84° E 20:33:36 10° N
NOSS 2-3 (C) 2.9 20:27:30 10° SW 20:30:53 77° SE 20:34:36 10° NE
Cosmos 2344 3.7 20:26:58 10° SSW 20:34:23 48° ESE 20:41:13 10° NE
Cosmos 1703 3.0 20:34:13 10° SSW 20:37:21 71° WNW 20:40:33 10° N
Ariane Rocket 3.0 20:32:50 10° SSE 20:37:54 81° ENE 20:43:01 10° NNW
USA 276 3.6 20:39:32 10° SSE 20:40:01 10° SE 20:40:29 10° SE
IRS-1C Rocket 4.1 20:35:18 10° SSE 20:40:34 84° ENE 20:45:51 10° NNW
CZ-4B R/B 2.9 20:38:16 10° SSE 20:42:15 85° WSW 20:46:18 10° NNW
Cosmos 1538 Rocket 4.2 20:38:31 10° SSW 20:43:43 81° WNW 20:49:02 10° NNE
Cosmos 2315 Rocket 4.3 20:38:09 10° SSE 20:44:05 50° E 20:50:03 10° NNE
Cosmos 1833 Rocket 3.6 20:39:16 10° NW 20:44:37 44° WSW 20:49:56 10° S
Iridium 4 Rocket 3.4 20:39:33 10° S 20:44:38 79° E 20:49:17 10° N
Okean O Rocket 2.9 20:40:40 10° SSW 20:44:43 37° W 20:48:49 10° NNW
Terra 4.2 20:41:44 10° SW 20:45:09 20° W 20:48:36 10° NW
USA 59 Rocket 0.2 20:44:13 10° S 20:47:20 28° SE 20:50:01 10° ENE
NOSS 2-3 (E) 4.0 20:44:15 10° WSW 20:47:50 55° NW 20:51:47 10° NE
Meteor 1-13 Rocket 4.4 20:42:34 10° S 20:48:29 74° E 20:54:26 10° NNE
Lacrosse 4 Rocket 4.0 20:47:20 10° NNW 20:49:47 15° NNE 20:52:12 10° ENE
Cosmos 923 Rocket 4.1 20:45:04 10° S 20:50:10 58° ESE 20:55:17 10° NNE
Cosmos 1470 Rocket 3.9 20:45:57 10° N 20:50:20 55° ENE 20:54:40 10° SSE
NOSS 2-1 (D) 3.9 20:49:02 10° S 20:52:12 27° SE 20:54:54 10° ENE
CZ-4B R/B 3.6 20:47:35 10° SSE 20:52:45 84° WSW 20:58:03 10° NNW
Helios 1B rocket 4.4 20:52:36 10° E 20:54:22 14° ENE 20:56:09 10° NNE
Cosmos 1953 2.8 20:53:50 10° NNW 20:57:18 49° W 21:00:45 10° S
Cosmos 2112 Rocket 4.5 20:52:57 10° S 20:57:46 42° ESE 21:02:39 10° NE
Cosmos 1328 Rocket 3.5 20:55:02 10° S 20:59:21 75° E 21:03:40 10° NNE
GP-B 3.3 20:56:15 10° N 21:00:38 70° W 21:04:57 10° SSW
S3M 4.0 20:55:58 10° S 21:02:05 79° E 21:08:17 10° NNE
Cosmos 1371 Rocket 4.0 21:00:01 10° NNW 21:05:17 87° WSW 21:10:11 12° SSE
Cosmos 883 Rocket 4.5 21:01:32 10° S 21:07:38 73° E 21:13:44 10° NNE
CZ-2C R/B 1.8 21:05:29 13° SSE 21:07:49 80° ENE 21:10:34 10° NNW
Cosmos 1709 Rocket 4.2 21:01:28 10° NNW 21:07:52 82° W 21:14:15 10° S
BREEZE-M R/B 3.9 21:03:51 10° SW 21:07:59 49° SSE 21:16:01 10° E
NOSS 3-2 (C) 4.1 21:02:56 10° WSW 21:08:09 57° NNW 21:14:34 10° NE
Cosmos 2082 Rocket 2.3 21:02:38 10° NNW 21:08:17 72° ENE 21:13:35 12° SE
NOSS 2-1 (C) 3.6 21:08:32 10° SSW 21:11:55 33° SE 21:14:46 10° ENE
Cosmos 2278 Rocket 2.3 21:09:13 10° S 21:14:44 56° ESE 21:20:17 10° NE
Cosmos 494 Rocket 4.1 21:10:21 10° S 21:15:28 59° ESE 21:20:38 10° NNE
Cosmos 1666 Rocket 4.3 21:13:12 10° NNW 21:17:23 49° W 21:21:30 10° SSW
Helios 1A 4.1 21:14:40 10° NE 21:18:03 26° E 21:20:41 14° SE
Meteor 1-21 4.2 21:14:03 10° S 21:19:41 82° E 21:25:24 10° NNE
Meteor 1-16 Rocket 4.4 21:14:15 10° NNW 21:19:51 77° W 21:25:27 11° S
USA-17 4.2 21:17:31 10° NW 21:20:42 74° SW 21:23:14 15° SE
Timation 2 Rocket 4.5 21:15:56 10° S 21:21:52 44° ESE 21:28:05 10° NE
USA 238 DEB 3.5 21:17:58 10° SSW 21:24:06 72° SE 21:30:56 10° NE
USA 238 3.5 21:18:13 10° SSW 21:24:20 71° SE 21:31:09 10° NE
Cosmos 1331 Rocket 4.2 21:19:33 10° NNW 21:24:41 64° ENE 21:29:12 13° SE
Lacrosse 5 rocket 1.8 21:22:08 10° W 21:25:39 53° NNW 21:29:05 10° ENE
Cosmos 1943 Rocket 2.2 21:20:55 10° SSW 21:26:34 84° ESE 21:32:13 10° NNE
SL-8 R/B 4.4 21:25:22 10° SSW 21:29:28 30° SSE 21:33:34 10° E
Cosmos 1869 Rocket 4.1 21:25:46 10° N 21:29:56 46° ENE 21:33:18 15° SE
Cosmos 546 4.5 21:27:40 10° W 21:31:26 68° S 21:35:11 10° E
ARIANE 5 R/B 4.0 21:27:49 10° ESE 21:31:38 29° ENE 21:35:27 10° N
BREEZE-M DEB (TANK) 4.3 21:15:06 10° W 21:36:17 77° S 21:41:41 10° E
Cosmos 1515 Rocket 3.5 21:36:36 12° S 21:40:35 81° E 21:44:55 10° NNE
Cosmos 1733 Rocket 4.4 21:38:05 10° N 21:41:48 27° ENE 21:45:08 12° SE
Meteor 1-12 Rocket 4.4 21:36:52 10° NNW 21:42:34 72° W 21:47:40 14° S
USA 81 4.1 21:39:38 10° N 21:44:56 77° E 21:49:12 16° SSE
Okean 2 3.5 21:42:54 10° SSW 21:46:43 68° WNW 21:50:34 10° N
ALOS 2 3.7 21:44:00 12° SE 21:47:33 35° ENE 21:51:33 10° N
Cosmos 1048 Rocket 4.2 21:43:50 13° S 21:48:25 55° ESE 21:53:35 10° NNE
Cosmos 1680 Rocket 3.8 21:43:45 10° SSW 21:48:55 71° WNW 21:54:09 10° NNE
COSMOS 2406 3.4 21:44:45 10° NNW 21:50:28 73° ENE 21:55:18 15° SE
Cosmos 1400 Rocket 2.8 21:46:57 10° NNW 21:50:34 62° W 21:53:10 17° S
Cosmos 2369 Rocket 3.7 21:50:39 13° SE 21:53:31 19° E 21:57:23 10° ENE
USA 290 4.3 21:53:38 10° N 21:56:05 20° NE 21:58:30 10° ESE
IKONOS-2 4.4 21:53:47 10° NNE 21:57:54 75° ESE 22:01:07 16° S
Cosmos 1295 Rocket 4.5 21:52:13 10° N 21:58:21 86° W 22:03:19 16° S
ARIANE 6 FM1 Upper Stage 4.0 21:58:06 19° SSE 21:59:34 22° ESE 22:02:49 10° ENE
Cosmos 1315 Rocket 4.5 21:57:28 10° N 22:00:34 23° ENE 22:03:25 11° ESE
Cosmos 972 Rocket 4.5 21:56:06 10° NNW 22:01:44 58° ENE 22:05:53 15° SE
Cosmos 1656 Rocket 4.0 21:59:36 16° S 22:03:44 46° ESE 22:09:02 10° NE
USA 215 3.2 22:01:08 10° ESE 22:07:41 80° SSW 22:14:15 10° WNW
Cosmos 1302 Rocket 4.2 22:04:14 10° NNW 22:09:31 67° ENE 22:13:42 16° SE
USA 276 2.1 22:09:47 10° SW 22:12:04 35° SSE 22:14:37 10° E
Cosmos 2074 Rocket 4.1 22:07:31 10° NNW 22:13:46 79° W 22:18:40 17° S
Okean 1-7 4.0 22:12:10 18° SE 22:14:35 33° E 22:18:23 10° NNE
NOSS 2-1 (E) 3.1 22:13:27 10° SW 22:17:06 70° NW 22:20:12 10° NE
Spot 4 3.9 22:17:54 19° SSE 22:21:22 81° ENE 22:26:13 10° NNW
Cosmos 1328 3.6 22:21:51 24° S 22:23:49 63° E 22:27:20 10° NNE
NOSS 3-1 (C) 3.7 22:21:46 20° SSE 22:24:17 33° ESE 22:29:11 10° ENE
Helios 1B rocket 2.1 22:24:53 24° S 22:26:49 67° WSW 22:30:17 10° NNW
USA 308 2.5 22:26:25 31° S 22:27:12 38° SE 22:30:48 10° ENE
Lacrosse 4 Rocket 2.2 22:24:26 10° NNW 22:28:32 47° NE 22:32:24 11° ESE
Cosmos 1812 3.5 22:30:12 10° WNW 22:31:01 12° W 22:31:08 12° W
USA 59 Rocket 1.0 22:32:48 10° W 22:35:45 32° NW 22:38:26 10° NNE
Cosmos 1441 Rocket 3.9 22:33:46 14° SW 22:36:16 37° WNW 22:39:19 10° N
CSL-04 DEB 4.1 22:35:05 24° S 22:37:09 76° WSW 22:40:48 10° NNW
ATLAS 5 CENTAUR R/B 0.9 22:37:18 31° S 22:38:14 42° SE 22:41:12 10° NE
Okean 3 4.4 22:34:54 11° SW 22:38:25 39° WNW 22:42:14 10° N
Cosmos 1992 Rocket 4.2 22:33:41 10° NNW 22:38:53 68° ENE 22:42:55 17° SE
BREEZE-M DEB (TANK) 2.9 22:33:25 10° WNW 22:40:13 66° SSW 22:42:17 16° ESE
NOSS 2-1 (D) 4.4 22:37:36 10° WSW 22:40:42 34° NW 22:43:28 10° NNE
Nadezhda 1 Rocket 4.0 22:36:02 18° S 22:40:47 83° E 22:47:05 10° NNE
COSMOS 2455 4.1 22:38:34 17° SSE 22:41:38 26° ESE 22:46:28 10° NE
Meteor 1-24 Rocket 4.3 22:41:09 19° SSE 22:45:17 52° E 22:51:07 10° NNE
GEOS 3 Rocket 3.7 22:40:59 11° SE 22:46:12 84° NE 22:51:38 10° NW
Cosmos 2344 4.2 22:41:22 10° WSW 22:48:37 56° NNW 22:55:57 10° NE
Exosat Rocket 4.3 22:44:00 17° SSW 22:48:48 71° ESE 22:57:18 10° NNE
Cosmos 2082 Rocket 3.7 22:47:27 10° NW 22:51:49 24° WSW 22:55:23 13° SSW
Cosmos 1452 Rocket 4.2 22:47:38 10° NW 22:52:34 41° WSW 22:55:52 19° SSW
Helios 1A 4.1 22:49:08 10° N 22:52:47 36° WNW 22:56:22 10° SW
ACS3 Solar Sail 2.7 22:47:52 10° NNE 22:52:55 32° E 22:56:47 16° SE
Cosmos 1869 3.9 22:51:32 10° N 22:54:49 40° ENE 22:56:49 20° SE
MetOp-A 3.5 22:52:47 21° SE 22:55:09 61° ENE 22:58:53 10° N
SL-4 R/B 1.8 22:55:58 28° SSW 22:56:58 37° SSE 22:59:56 10° E
Cosmos 2278 Rocket 3.7 22:53:54 10° WSW 22:59:06 36° NW 23:04:19 10° NNE
Cosmos 614 Rocket 4.1 22:57:55 14° SW 23:02:20 70° WNW 23:07:25 10° NNE
Lacrosse 5 rocket 2.5 22:59:16 10° WNW 23:02:36 37° N 23:05:52 10° ENE
ARIANE 5 R/B 3.4 23:05:10 20° SSW 23:07:48 40° W 23:11:59 10° NNW
Meteor 2-5 Rocket 4.0 23:04:24 21° S 23:08:24 66° E 23:14:17 10° NNE
CZ-2C R/B 4.4 23:04:46 10° N 23:09:22 53° WNW 23:13:09 15° SW
NOSS 2-2 (C) 4.5 23:06:29 10° NW 23:09:40 39° NE 23:13:41 10° ESE
SL-8 Rocket 4.0 23:03:36 10° N 23:09:48 89° E 23:14:17 20° S
CENTAUR R/B 4.2 23:02:57 10° NW 23:10:08 47° NNE 23:18:45 10° E
Cosmos 1943 Rocket 4.2 23:06:14 10° W 23:10:58 27° NW 23:15:42 10° NNE
SL-8 R/B 3.7 23:06:37 10° WSW 23:11:13 52° S 23:15:50 10° E
CZ-2C R/B 3.1 23:10:56 10° NNE 23:16:21 78° ESE 23:19:49 21° S
SAR-Lupe-2 3.4 23:15:20 30° S 23:16:43 63° WSW 23:19:55 10° NNW
Meteor 2-15 4.5 23:13:03 10° NNW 23:19:08 76° W 23:23:25 20° S
Cosmos 1733 Rocket 3.9 23:15:34 10° NNW 23:19:33 37° W 23:22:03 19° SSW
CZ-2C R/B 2.6 23:16:25 20° SSE 23:20:03 86° WSW 23:25:24 10° NNW
Cosmos 1833 4.2 23:15:30 10° NNW 23:21:11 83° WSW 23:25:37 17° SSE
ALOS 2 3.7 23:21:23 19° SSW 23:23:53 33° W 23:27:54 10° NNW
SL-12 R/B(2) 4.4 23:16:01 10° SW 23:24:07 84° SE 23:34:14 10° NE
Cosmos 2341 Rocket 4.0 23:18:12 10° NNW 23:24:26 77° W 23:28:53 20° S
Cosmos 1707 Rocket 3.9 23:22:47 20° SSW 23:25:42 59° WNW 23:30:06 10° N
Cosmos 2228 Rocket 3.1 23:26:00 23° SSW 23:28:44 78° W 23:33:12 10° N
Cosmos 1703 Rocket 3.8 23:26:16 23° SSE 23:28:51 58° E 23:33:11 10° NNE
Cosmos 1356 Rocket 3.4 23:26:03 10° NNW 23:30:03 69° W 23:32:18 25° S
Landsat 5 4.2 23:26:41 10° NNE 23:30:09 35° E 23:32:03 21° SSE
USA 290 3.1 23:27:20 10° NW 23:30:13 34° WSW 23:31:10 27° SW
Meteor 2-13 Rocket 4.4 23:27:03 20° S 23:31:29 89° W 23:37:38 10° N
Cosmos 2297 Rocket 4.0 23:26:53 10° NNW 23:31:52 30° NE 23:36:49 10° ESE
Cosmos 1315 Rocket 3.6 23:32:41 10° NNW 23:36:12 37° W 23:38:04 22° SSW
Cosmos 2369 Rocket 2.2 23:32:23 17° SSW 23:36:48 86° WNW 23:42:28 10° NNE
Cosmos 1862 Rocket 4.4 23:34:20 17° SW 23:37:20 42° WNW 23:41:27 10° N
ARIANE 6 FM1 Upper Stage 2.9 23:34:02 10° WSW 23:38:12 71° NW 23:42:18 10° NE
Cosmos 2297 3.7 23:36:40 17° SSW 23:41:07 90° SE 23:46:53 10° NNE
USA 276 1.8 23:41:58 10° W 23:44:34 50° S 23:47:23 10° ESE
Cosmos 1932 4.5 23:40:51 10° NW 23:47:24 81° SW 23:53:47 10° SE
USA 308 2.5 23:45:47 10° W 23:49:01 80° NNW 23:53:14 10° ENE
Cosmos 540 Rocket 4.2 23:44:10 10° NNW 23:49:09 50° ENE 23:54:05 10° SE
USA 215 4.0 23:47:35 19° S 23:51:20 32° SW 23:57:04 10° WNW
Okean 1-7 4.4 23:48:24 13° SW 23:51:33 30° WNW 23:55:19 10° N
